[[{"header":{"parameterUnit":"m.s-1","parameterCategory":2,"la1":30.2991,"la2":30.254,"lo1":-89.0895,"lo2":-89.0444,"dy":0.0017,"dx":0.0017,"nx":28,"ny":28,"refTime":"2025-11-08T09:00:00:Z","depth":"0","parameterNumber":2,"parameterNumberName":"U-component_of_CURRENTS"},"data":[0,0,0,0,0,0,0,0,0,0,0,0,0,0,0,0,0,0,0,0,0,0,0,0,0,0,0,0,0,0,0,0,0,0,0,0,0,0,0,0,0,0,0,0,0,0,0,0,0,0,0,0,0,0,0,0,0,0,0.4277,0.4276,0,0.4211,0.4211,0.421,0.421,0.4211,0.4211,0.4212,0.4239,0.4239,0.4239,0,0,0,0,0,0,0,0,0,0,0,0,0,0.4392,0.439,0.4277,0.4276,0.4276,0.4211,0.4211,0.421,0.421,0.4211,0.4212,0.4213,0.4239,0.4239,0.4239,0,0,0,0,0,0,0,0,0,0,0,0,0,0.4335,0.4389,0.4277,0.4268,0.4267,0.4212,0.4211,0.4209,0.4209,0.4211,0.4212,0.4213,0.4239,0.4239,0.4239,0.4212,0,0,0.4239,0.4239,0,0,0,0,0,0,0,0,0.4339,0.4331,0.427,0.4269,0.4267,0.422,0.4261,0.4215,0.4209,0.4231,0.4212,0.4214,0.4241,0.4241,0.4224,0.4214,0.4215,0.4239,0.4239,0.4239,0.4239,0,0,0,0,0,0,0,0.4343,0.4334,0.4251,0.4269,0.4267,0.4263,0.4257,0.4252,0.4231,0.4229,0.4229,0.4221,0.4241,0.4224,0.4225,0.4215,0.4239,0.4239,0.4239,0.4239,0.427,0.4271,0,0,0,0,0,0,0.435,0.4337,0.4253,0.4249,0.4307,0.426,0.4253,0.4234,0.4229,0.4229,0.422,0.4222,0.4223,0.4225,0.4226,0.4299,0.4239,0.4239,0.4238,0.4269,0.427,0.4271,0,0,0,0,0,0,0.4352,0.4342,0.4256,0.4293,0.4282,0.4257,0.4235,0.4232,0.4224,0.4221,0.4223,0.4218,0.4224,0.4226,0.4231,0.4296,0.4238,0.4238,0.4268,0.427,0.4271,0.4378,0,0,0,0,0,0,0.4355,0.4343,0.4337,0.4293,0.428,0.4236,0.4234,0.423,0.4217,0.4219,0.422,0.4223,0.4226,0.4231,0.4231,0.4295,0.4238,0.4267,0.4269,0.427,0.4373,0.4383,0.4391,0,0,0,0,0,0.436,0.4347,0.4336,0.4327,0.4269,0.4236,0.423,0.4217,0.4216,0.4214,0.4214,0.4223,0.4243,0.4231,0.423,0.4297,0.4266,0.4268,0.427,0.437,0.4381,0.4391,0,0,0,0,0,0,0.4392,0.4344,0.4332,0.4305,0.4279,0.4237,0.4234,0.4218,0.4211,0.4221,0.4217,0.422,0.4257,0.4242,0.4229,0.4307,0.4263,0.4265,0.4339,0.435,0.4358,0.4415,0.4238,0,0,0,0,0,0.4394,0.4375,0.433,0.4312,0.43,0.4266,0.4252,0.4242,0.4226,0.4224,0.4221,0.4232,0.426,0.4276,0.4282,0.4309,0.4345,0.4354,0.4363,0.4371,0.4414,0.4526,0.4551,0.4278,0.4278,0.4278,0,0,0.44,0.4373,0.4362,0.4318,0.4298,0.4301,0.4262,0.4246,0.4272,0.4229,0.4261,0.4255,0.4269,0.4314,0.4332,0.4316,0.4457,0.4373,0.438,0.4421,0.4531,0.4558,0.4583,0.428,0.4279,0.4279,0,0,0.4409,0.4381,0.4372,0.4359,0.4332,0.4323,0.4322,0.4285,0.4296,0.4298,0.4305,0.434,0.4333,0.4391,0.4415,0.4471,0.4495,0.4461,0.4566,0.4673,0.4699,0.4721,0.477,0.4797,0.4474,0.4474,0.4474,0,0.4415,0.4399,0.4366,0.4365,0.437,0.4342,0.4353,0.4362,0.4337,0.4368,0.4325,0.4387,0.4391,0.4511,0.4536,0.4504,0.4539,0.4529,0.4692,0.4715,0.4737,0.4782,0.481,0.4479,0.4479,0.4478,0.4478,0,0.4415,0.4418,0.4416,0.4417,0.4424,0.4422,0.4437,0.4458,0.4456,0.4468,0.4542,0.454,0.4593,0.4599,0.4588,0.4749,0.4714,0.4688,0.4678,0.4772,0.4811,0.4838,0.4487,0.4485,0.4484,0.4482,0,0,0.4372,0.4407,0.4405,0.4432,0.4451,0.4453,0.453,0.4582,0.4651,0.4645,0.4746,0.4789,0.4789,0.4817,0.4817,0.4911,0.5073,0.4872,0.4875,0.4944,0.5283,0.5115,0.5127,0.5081,0.5087,0.5091,0.5238,0,0.4376,0.4399,0.4423,0.4478,0.4497,0.4537,0.4613,0.4675,0.472,0.4814,0.4867,0.4942,0.4876,0.4913,0.5004,0.507,0.5155,0.5034,0.5162,0.5166,0.5026,0.5158,0.4943,0.5045,0.5265,0.5269,0.5273,0,0.4354,0.4383,0.4425,0.4526,0.4539,0.458,0.4709,0.4775,0.4924,0.4965,0.5066,0.51,0.5256,0.5169,0.5355,0.5279,0.5302,0.5329,0.5335,0.5173,0.5051,0.499,0.5086,0.4952,0.5314,0.5311,0.5308,0,0.4319,0.4387,0.4428,0.445,0.4554,0.4606,0.4676,0.4811,0.4899,0.5082,0.5165,0.5315,0.5391,0.5491,0.5519,0.5469,0.57,0.5633,0.5498,0.5483,0.5326,0.5287,0.5333,0.5779,0.5778,0.5778,0.5777,0,0.4298,0.4333,0.4414,0.4429,0.4515,0.4597,0.4713,0.4811,0.4985,0.51,0.5238,0.5343,0.5479,0.5597,0.5622,0.5642,0.5781,0.5564,0.5541,0.5344,0.5308,0.5199,0.5135,0.5783,0.5782,0.5781,0.578,0,0.4249,0.4292,0.4352,0.4457,0.4492,0.4555,0.4713,0.4803,0.4974,0.5144,0.5215,0.5416,0.555,0.5651,0.5804,0.5735,0.5636,0.5757,0.5482,0.5422,0.5116,0.5065,0.4958,0.4819,0.5656,0.5653,0.5651,0,0.4222,0.4242,0.4345,0.438,0.4421,0.4524,0.4592,0.4769,0.4866,0.515,0.5223,0.5425,0.5506,0.5668,0.5631,0.5669,0.553,0.5451,0.5314,0.5114,0.5044,0.4876,0.4756,0.5143,0.5137,0.5131,0.5127,0,0.419,0.4221,0.4274,0.4331,0.439,0.447,0.4579,0.465,0.4859,0.4994,0.5153,0.526,0.5402,0.5323,0.5357,0.5352,0.5183,0.5337,0.5247,0.4756,0.447,0.4315,0.4998,0.5081,0.5086,0.5089,0.5092,0.5093,0.4167,0.4184,0.4235,0.428,0.4336,0.4367,0.4368,0.4492,0.4595,0.4706,0.4922,0.495,0.5029,0.5034,0.5004,0.4804,0.482,0.4649,0.464,0.4516,0.4267,0.4806,0.4775,0.4778,0.478,0.4782,0.4784,0,0.411,0.4127,0.4175,0.419,0.4166,0.4243,0.4308,0.4263,0.4267,0.44,0.4471,0.4474,0.4425,0.4472,0.4367,0.4162,0.401,0.4049,0.3814,0.3758,0.436,0.4219,0.3924,0.3924,0.3924,0.3924,0.3924,0.3924,0.4082,0.407,0.4072,0.399,0.3987,0.3881,0.3862,0.3832,0.3863,0.3782,0.3731,0.3808,0.4025,0.4072,0.3886,0.3766,0.3486,0.329,0.332,0.3789,0.3845,0.3898,0.3754,0.3366,0.3365,0.257,0.2564,0.2559]},{"header":{"parameterUnit":"m.s-1","parameterCategory":2,"la1":30.2991,"la2":30.254,"lo1":-89.0895,"lo2":-89.0444,"dy":0.0017,"dx":0.0017,"nx":28,"ny":28,"refTime":"2025-11-08T09:00:00:Z","depth":"0","parameterNumber":3,"parameterNumberName":"V-component_of_CURRENTS"},"data":[0,0,0,0,0,0,0,0,0,0,0,0,0,0,0,0,0,0,0,0,0,0,0,0,0,0,0,0,0,0,0,0,0,0,0,0,0,0,0,0,0,0,0,0,0,0,0,0,0,0,0,0,0,0,0,0,0,0,0.01,0.01,0,0.0046,0.0045,0.0044,-0.0005,-0.0005,-0.0006,-0.0006,-0.0102,-0.0104,-0.0106,0,0,0,0,0,0,0,0,0,0,0,0,0,0.0098,0.0098,0.01,0.01,0.01,0.0046,0.0045,0.0044,-0.0005,-0.0005,-0.0006,-0.0006,-0.0101,-0.0104,-0.0107,0,0,0,0,0,0,0,0,0,0,0,0,0,0.0074,0.0099,0.0101,0.0071,0.0068,0.0046,0.0045,0.0044,-0.0005,-0.0005,-0.0006,-0.0006,-0.01,-0.0104,-0.0107,-0.0118,0,0,-0.0117,-0.0119,0,0,0,0,0,0,0,0,0.0076,0.0074,0.0076,0.0073,0.0069,0.0029,0.0009,-0.0011,-0.0005,0.002,-0.0006,-0.0007,-0.006,-0.0067,-0.0079,-0.0122,-0.0126,-0.0118,-0.012,-0.0121,-0.0122,0,0,0,0,0,0,0,0.0078,0.0076,0.0076,0.0075,0.0071,0.0038,0.0035,0.0005,-0.002,0.0017,0.0014,0.0013,-0.0062,-0.0076,-0.0082,-0.0128,-0.0117,-0.012,-0.0123,-0.0124,-0.0176,-0.0175,0,0,0,0,0,0,0.0094,0.0078,0.0078,0.0075,0.0075,0.0039,0.0035,0.004,-0.0018,-0.0027,0.0014,0.0011,-0.007,-0.0078,-0.0085,-0.008,-0.0121,-0.0124,-0.0126,-0.0176,-0.0175,-0.0175,0,0,0,0,0,0,0.0094,0.0095,0.008,0.0077,0.0073,0.0041,0.0046,0.004,0.003,-0.002,-0.003,0.0012,-0.007,-0.0081,-0.01,-0.0085,-0.0126,-0.0129,-0.0177,-0.0176,-0.0175,-0.0084,0,0,0,0,0,0,0.0095,0.0095,0.0101,0.0078,0.0074,0.0081,0.0047,0.0039,0.0031,0.0027,-0.0025,-0.0035,-0.0072,-0.0095,-0.0104,-0.0091,-0.0131,-0.0178,-0.0176,-0.0175,-0.0088,-0.008,-0.0073,0,0,0,0,0,0.0095,0.0113,0.0102,0.0102,0.0084,0.0082,0.0077,0.0049,0.0032,0.0037,0.0002,-0.0033,-0.0094,-0.0097,-0.0107,-0.0095,-0.0178,-0.0177,-0.0175,-0.0091,-0.0081,-0.0073,0,0,0,0,0,0,0.0113,0.0109,0.0097,0.0111,0.0102,0.0075,0.0075,0.0058,0.0033,0.0026,-0.0024,-0.0035,-0.005,-0.0083,-0.0085,-0.0107,-0.0142,-0.0143,-0.0074,-0.0066,-0.0059,-0.0027,-0.0134,0,0,0,0,0,0.0122,0.0133,0.0121,0.0132,0.0131,0.0103,0.0097,0.0082,0.0059,0.0048,0.0014,-0.0024,-0.0053,-0.0066,-0.01,-0.0107,-0.012,-0.0107,-0.01,-0.0093,-0.0075,-0.0066,-0.0055,-0.017,-0.017,-0.017,0,0,0.013,0.013,0.0135,0.0136,0.0123,0.0138,0.0098,0.0098,0.0108,0.0041,0.0041,-0.0002,-0.005,-0.0061,-0.007,-0.0085,-0.0071,-0.0092,-0.0086,-0.0071,-0.0063,-0.0051,-0.0041,-0.0169,-0.0169,-0.0169,0,0,0.0165,0.0155,0.018,0.018,0.0175,0.0162,0.0168,0.0149,0.0137,0.0131,0.0085,0.0062,0.0015,-0.0008,-0.0028,0.0001,-0.0035,-0.0018,0.0048,0.0057,0.0067,0.0076,0.0065,0.0073,-0.0011,-0.001,-0.001,0,0.0176,0.0209,0.0186,0.0212,0.0223,0.0181,0.0216,0.0198,0.0175,0.0182,0.0142,0.0099,0.0044,0.0053,0.005,0.0019,0.0013,0.002,0.0069,0.0078,0.0085,0.0072,0.0079,-0.0006,-0.0006,-0.0007,-0.0007,0,0.0235,0.0257,0.0272,0.0295,0.03,0.0321,0.0304,0.0301,0.0277,0.0268,0.0266,0.0198,0.0177,0.015,0.01,0.0129,0.0102,0.0077,0.0054,0.0103,0.0085,0.0091,0.0001,-0.0001,-0.0002,-0.0003,0,0,0.0274,0.031,0.0315,0.0348,0.035,0.0369,0.0381,0.04,0.0434,0.0387,0.0438,0.0354,0.0322,0.0296,0.0237,0.0234,0.0255,0.018,0.0178,0.0182,0.027,0.0223,0.0223,0.0244,0.0246,0.0247,0.0233,0,0.033,0.0407,0.0404,0.0473,0.0514,0.0487,0.0514,0.052,0.0512,0.0547,0.0486,0.0503,0.0378,0.038,0.0349,0.0294,0.0275,0.026,0.0211,0.021,0.0173,0.0231,0.0239,0.0225,0.0238,0.0239,0.0239,0,0.0393,0.0441,0.0522,0.0586,0.0602,0.063,0.0681,0.0705,0.0725,0.0725,0.0715,0.0675,0.0652,0.0549,0.0465,0.0465,0.0367,0.0312,0.031,0.0243,0.0174,0.0178,0.0234,0.0044,0.0247,0.0247,0.0246,0,0.045,0.0525,0.0599,0.0618,0.0675,0.0705,0.0735,0.0762,0.0822,0.0858,0.0918,0.0854,0.0856,0.0742,0.0579,0.0536,0.0505,0.0431,0.0295,0.0289,0.0275,0.0266,0.0154,0.0378,0.0378,0.0378,0.0378,0,0.0518,0.0577,0.0633,0.0675,0.0779,0.0785,0.0897,0.0911,0.0984,0.1107,0.1022,0.1105,0.0908,0.0851,0.0672,0.0511,0.0567,0.0326,0.0296,0.0303,0.0297,0.0111,-0.0006,0.0377,0.0377,0.0377,0.0377,0,0.0568,0.0599,0.0698,0.0775,0.0809,0.0886,0.1013,0.1105,0.1148,0.1309,0.134,0.1314,0.124,0.1031,0.0863,0.0649,0.0384,0.0418,0.0425,0.0395,0.0057,-0.0054,-0.021,-0.0288,0.0266,0.0265,0.0264,0,0.0603,0.0658,0.0779,0.0856,0.0896,0.1014,0.111,0.1181,0.1299,0.1457,0.1558,0.1529,0.1546,0.1261,0.0898,0.0593,0.0386,0.0366,0.0267,0.0059,-0.0087,-0.0182,-0.0243,0.0278,0.0278,0.0277,0.0277,0,0.0683,0.0719,0.0807,0.0962,0.1075,0.1221,0.1363,0.148,0.1603,0.175,0.1924,0.1959,0.1677,0.1368,0.0909,0.0682,0.0225,0.0341,0.0145,-0.0066,-0.0191,-0.0286,0.0244,0.0271,0.0272,0.0272,0.0273,0.0273,0.0748,0.0825,0.0941,0.1089,0.1229,0.1408,0.1542,0.1721,0.1935,0.2167,0.2183,0.2276,0.1794,0.1174,0.0833,0.0185,0.0165,-0.003,-0.0141,-0.0214,-0.0311,0.0192,0.0168,0.0168,0.0168,0.0167,0.0167,0,0.0839,0.0926,0.1067,0.1246,0.1409,0.1463,0.1705,0.186,0.2129,0.2342,0.2495,0.2317,0.1732,0.1123,0.0237,-0.0215,-0.0369,-0.0452,-0.0578,-0.0611,-0.0135,-0.0158,-0.0274,-0.0274,-0.0274,-0.0274,-0.0273,-0.0273,0.0894,0.1034,0.11,0.1364,0.1495,0.1713,0.1853,0.2098,0.2288,0.2547,0.2613,0.2623,0.2128,0.058,-0.0427,-0.063,-0.0935,-0.1027,-0.1166,-0.0849,-0.0818,-0.0789,-0.0837,-0.1094,-0.1095,-0.1576,-0.1582,-0.1585]}],[{"header":{"parameterUnit":"m.s-1","parameterCategory":2,"la1":30.2991,"la2":30.254,"lo1":-89.0895,"lo2":-89.0444,"dy":0.0017,"dx":0.0017,"nx":28,"ny":28,"refTime":"2025-11-08T09:00:00:Z","depth":"2","parameterNumber":2,"parameterNumberName":"U-component_of_CURRENTS"},"data":[0,0,0,0,0,0,0,0,0,0,0,0,0,0,0,0,0,0,0,0,0,0,0,0,0,0,0,0,0,0,0,0,0,0,0,0,0,0,0,0,0,0,0,0,0,0,0,0,0,0,0,0,0,0,0,0,0,0,0.3234,0.3235,0,0.3259,0.3259,0.3259,0.3268,0.3268,0.3268,0.3269,0.3275,0.3275,0.3275,0,0,0,0,0,0,0,0,0,0,0,0,0,0.3201,0.3202,0.3234,0.3235,0.3235,0.3259,0.3259,0.3259,0.3268,0.3268,0.3268,0.3269,0.3275,0.3275,0.3275,0,0,0,0,0,0,0,0,0,0,0,0,0,0.3217,0.3202,0.3234,0.3245,0.3246,0.3259,0.3259,0.3259,0.3268,0.3268,0.3269,0.3269,0.3275,0.3275,0.3275,0.327,0,0,0.3275,0.3275,0,0,0,0,0,0,0,0,0.3216,0.3218,0.3243,0.3244,0.3246,0.3263,0.325,0.3263,0.3268,0.3257,0.3269,0.3269,0.3271,0.3271,0.3272,0.327,0.327,0.3275,0.3275,0.3275,0.3275,0,0,0,0,0,0,0,0.3215,0.3217,0.3241,0.3243,0.3245,0.3251,0.3253,0.3252,0.326,0.3258,0.3259,0.3266,0.3271,0.3272,0.3272,0.327,0.3275,0.3275,0.3275,0.3275,0.3336,0.3337,0,0,0,0,0,0,0.3217,0.3216,0.324,0.3242,0.3234,0.3251,0.3253,0.3255,0.326,0.3262,0.3266,0.3267,0.3271,0.3272,0.3272,0.3332,0.3275,0.3275,0.3275,0.3334,0.3336,0.3338,0,0,0,0,0,0,0.3216,0.3219,0.324,0.3232,0.3236,0.3252,0.3253,0.3255,0.3274,0.3267,0.3268,0.3285,0.3272,0.3272,0.3293,0.3329,0.3275,0.3275,0.3332,0.3335,0.3337,0.3409,0,0,0,0,0,0,0.3215,0.3218,0.3225,0.3232,0.3236,0.3262,0.3253,0.3256,0.3278,0.3279,0.3283,0.3283,0.3272,0.3293,0.3293,0.3328,0.3275,0.333,0.3334,0.3336,0.3404,0.3413,0.3421,0,0,0,0,0,0.3213,0.3216,0.3225,0.3229,0.3244,0.3263,0.3266,0.3276,0.3279,0.3292,0.3298,0.3284,0.3313,0.3294,0.3294,0.333,0.3329,0.3333,0.3336,0.34,0.3411,0.3421,0,0,0,0,0,0,0.3196,0.3218,0.3228,0.3235,0.3258,0.3266,0.3279,0.3287,0.3302,0.3308,0.3298,0.3299,0.3333,0.3321,0.3301,0.3358,0.3321,0.3325,0.337,0.338,0.3388,0.3411,0.3275,0,0,0,0,0,0.3199,0.3214,0.3234,0.3244,0.3257,0.3273,0.3285,0.3297,0.3309,0.3316,0.3318,0.3327,0.3345,0.3354,0.336,0.3386,0.3406,0.3411,0.3419,0.3427,0.3446,0.3533,0.3552,0.335,0.335,0.335,0,0,0.3197,0.3211,0.322,0.3244,0.326,0.3286,0.328,0.3308,0.3336,0.3314,0.3349,0.3355,0.3358,0.3392,0.3407,0.3388,0.3489,0.3431,0.3437,0.3453,0.3539,0.3559,0.3577,0.3352,0.3352,0.3352,0,0,0.3198,0.3214,0.323,0.3255,0.3291,0.3305,0.3319,0.3342,0.3362,0.3394,0.3395,0.3429,0.3435,0.346,0.3469,0.3528,0.3531,0.3527,0.3588,0.3672,0.369,0.3706,0.3732,0.375,0.3531,0.3531,0.3531,0,0.3201,0.3216,0.3238,0.3263,0.3289,0.3317,0.3345,0.3372,0.3401,0.3431,0.3415,0.3475,0.3474,0.354,0.3562,0.355,0.3581,0.3547,0.3686,0.3702,0.3717,0.374,0.3759,0.3535,0.3534,0.3534,0.3534,0,0.3211,0.3236,0.3249,0.3294,0.3325,0.3354,0.3399,0.3438,0.3463,0.3491,0.3559,0.3568,0.3609,0.3615,0.3606,0.3714,0.3693,0.3687,0.3663,0.3742,0.376,0.3779,0.354,0.3539,0.3538,0.3537,0,0,0.319,0.3245,0.3255,0.3282,0.3346,0.337,0.3438,0.3502,0.356,0.3594,0.3676,0.3706,0.3725,0.3739,0.3742,0.3812,0.3931,0.3802,0.3805,0.3832,0.4093,0.3997,0.4007,0.3962,0.3966,0.397,0.4053,0,0.3197,0.324,0.3272,0.3328,0.3356,0.3417,0.3481,0.3552,0.3607,0.3695,0.3744,0.3817,0.3768,0.3811,0.3872,0.3928,0.3989,0.3907,0.4009,0.4011,0.3921,0.4029,0.37,0.3741,0.4071,0.4074,0.4076,0,0.3192,0.3229,0.3271,0.3354,0.3375,0.3417,0.3531,0.3601,0.3735,0.379,0.3874,0.3914,0.402,0.3981,0.4103,0.4058,0.4087,0.4116,0.412,0.4025,0.3952,0.372,0.3762,0.4106,0.4104,0.4102,0.41,0,0.3154,0.3227,0.3257,0.3284,0.3383,0.3428,0.3504,0.3628,0.3708,0.3879,0.3947,0.4057,0.4132,0.4203,0.4232,0.4198,0.4368,0.4322,0.4253,0.4243,0.3979,0.394,0.4433,0.4433,0.4433,0.4433,0.4432,0,0.3134,0.3164,0.3242,0.3264,0.3337,0.3422,0.352,0.3624,0.3782,0.3879,0.3997,0.4077,0.4204,0.4288,0.4304,0.433,0.442,0.4292,0.4284,0.3989,0.3952,0.428,0.4261,0.4436,0.4435,0.4434,0.4434,0,0.3075,0.3122,0.3165,0.3269,0.3313,0.3372,0.353,0.3603,0.3765,0.3904,0.3972,0.4144,0.4254,0.4331,0.4462,0.4406,0.4456,0.444,0.4058,0.4004,0.4248,0.4232,0.4377,0.4375,0.4373,0.4371,0.437,0,0.3042,0.3057,0.3157,0.3185,0.3229,0.3332,0.3408,0.3591,0.367,0.3905,0.3962,0.4142,0.4208,0.4349,0.4338,0.4364,0.4444,0.4057,0.3937,0.4278,0.4256,0.4242,0.4228,0.3595,0.3588,0.3582,0.3577,0,0.299,0.3019,0.3054,0.3116,0.3179,0.3256,0.3376,0.3422,0.3626,0.3733,0.386,0.3949,0.4103,0.3993,0.4061,0.4025,0.4027,0.3932,0.4431,0.3665,0.355,0.3525,0.3536,0.3522,0.3528,0.3532,0.3535,0.3537,0.2944,0.2945,0.2984,0.3031,0.3105,0.3139,0.3128,0.3239,0.3329,0.343,0.3627,0.3651,0.3731,0.3663,0.3565,0.3497,0.3769,0.3588,0.3603,0.3626,0.3526,0.3415,0.3339,0.3343,0.3347,0.335,0.3353,0,0.287,0.2876,0.2904,0.2934,0.2935,0.3022,0.3072,0.3011,0.3008,0.3172,0.3254,0.3041,0.3002,0.3078,0.2892,0.2902,0.2842,0.2782,0.2663,0.2722,0.2774,0.2625,0.2202,0.2198,0.2194,0.219,0,0,0.2833,0.2809,0.2811,0.2755,0.2764,0.2692,0.2656,0.2607,0.2655,0.2624,0.2639,0.2894,0.3008,0.2564,0.2518,0.2319,0.2495,0.2233,0.3169,0.309,0.3136,0.3265,0.3108,0,0,0,0,0]},{"header":{"parameterUnit":"m.s-1","parameterCategory":2,"la1":30.2991,"la2":30.254,"lo1":-89.0895,"lo2":-89.0444,"dy":0.0017,"dx":0.0017,"nx":28,"ny":28,"refTime":"2025-11-08T09:00:00:Z","depth":"2","parameterNumber":3,"parameterNumberName":"V-component_of_CURRENTS"},"data":[0,0,0,0,0,0,0,0,0,0,0,0,0,0,0,0,0,0,0,0,0,0,0,0,0,0,0,0,0,0,0,0,0,0,0,0,0,0,0,0,0,0,0,0,0,0,0,0,0,0,0,0,0,0,0,0,0,0,0.0191,0.0191,0,0.0134,0.0133,0.0132,0.0094,0.0094,0.0094,0.0094,0.0023,0.0021,0.0019,0,0,0,0,0,0,0,0,0,0,0,0,0,0.0205,0.0205,0.0191,0.0191,0.019,0.0134,0.0133,0.0132,0.0094,0.0094,0.0094,0.0094,0.0023,0.0021,0.0019,0,0,0,0,0,0,0,0,0,0,0,0,0,0.0177,0.0205,0.0191,0.0165,0.0162,0.0134,0.0133,0.0132,0.0094,0.0094,0.0094,0.0094,0.0024,0.0021,0.0019,0.0006,0,0,0.0011,0.001,0,0,0,0,0,0,0,0,0.0179,0.0176,0.017,0.0167,0.0164,0.0122,0.0112,0.009,0.0094,0.0119,0.0094,0.0094,0.0056,0.005,0.0038,0.0003,0.0,0.001,0.0009,0.0008,0.0007,0,0,0,0,0,0,0,0.0181,0.0178,0.0167,0.0169,0.0166,0.0135,0.0131,0.0107,0.0088,0.0117,0.0114,0.011,0.0054,0.0041,0.0036,-0.0001,0.0011,0.0008,0.0007,0.0005,-0.0039,-0.0039,0,0,0,0,0,0,0.0194,0.0181,0.0169,0.0165,0.0172,0.0135,0.0131,0.0135,0.0088,0.0081,0.011,0.0108,0.0046,0.004,0.0034,0.0039,0.0008,0.0005,0.0004,-0.0039,-0.0039,-0.0039,0,0,0,0,0,0,0.0195,0.0194,0.0171,0.0172,0.0167,0.0136,0.014,0.0134,0.0124,0.0084,0.0076,0.0108,0.0045,0.0037,0.0022,0.0035,0.0004,0.0002,-0.004,-0.0039,-0.0039,0.0035,0,0,0,0,0,0,0.0196,0.0195,0.0199,0.0173,0.0168,0.0166,0.014,0.0133,0.0122,0.0119,0.0079,0.0072,0.0044,0.0026,0.0019,0.0031,-0.0,-0.004,-0.004,-0.0039,0.0032,0.0038,0.0043,0,0,0,0,0,0.0196,0.0209,0.02,0.0198,0.0177,0.0166,0.0161,0.0136,0.0123,0.0125,0.0098,0.0073,0.0026,0.0024,0.0016,0.0027,-0.0041,-0.004,-0.0039,0.0029,0.0037,0.0043,0,0,0,0,0,0,0.0216,0.0206,0.0195,0.0204,0.019,0.0161,0.0158,0.0142,0.0121,0.0117,0.0079,0.007,0.0059,0.0033,0.0032,0.0016,-0.0012,-0.0012,0.0043,0.0049,0.0055,0.008,-0.0003,0,0,0,0,0,0.0223,0.0232,0.0214,0.022,0.0216,0.0187,0.0179,0.0164,0.0143,0.0133,0.0106,0.0077,0.0055,0.0046,0.0019,0.0013,-0.0014,0.0014,0.0019,0.0024,0.0039,0.0012,0.0017,-0.0036,-0.0036,-0.0036,0,0,0.0231,0.0227,0.023,0.0224,0.0209,0.0218,0.0182,0.0175,0.0183,0.0129,0.0129,0.0093,0.0056,0.0048,0.0041,0.0031,0.0023,0.0025,0.003,0.0042,0.0014,0.0019,0.0024,-0.0035,-0.0035,-0.0035,0,0,0.0258,0.0249,0.0267,0.0263,0.0251,0.0238,0.0241,0.0217,0.0207,0.0199,0.0163,0.0142,0.0106,0.0088,0.0073,0.0093,0.005,0.008,0.0133,0.0107,0.0112,0.0115,0.0082,0.0082,0.0087,0.0087,0.0087,0,0.0267,0.0293,0.0269,0.0287,0.0295,0.0255,0.0281,0.0263,0.0238,0.024,0.021,0.0165,0.0128,0.013,0.0133,0.0108,0.0082,0.0113,0.0116,0.0119,0.0121,0.0086,0.0085,0.0091,0.009,0.009,0.009,0,0.0311,0.0331,0.0341,0.0357,0.0359,0.0373,0.0354,0.0349,0.0327,0.0314,0.0302,0.0246,0.0225,0.0204,0.0173,0.0177,0.0148,0.0123,0.0103,0.0132,0.0091,0.0089,0.0096,0.0095,0.0094,0.0093,0,0,0.0339,0.037,0.0374,0.0404,0.0402,0.0415,0.0423,0.0433,0.0458,0.0407,0.0433,0.0372,0.0339,0.0319,0.0272,0.0247,0.0229,0.0199,0.0196,0.0173,0.0166,0.0132,0.0126,0.0204,0.0204,0.0205,0.0129,0,0.0384,0.0448,0.0445,0.0506,0.0542,0.0516,0.0538,0.0536,0.0523,0.0534,0.0469,0.0471,0.0385,0.0381,0.0337,0.0263,0.0228,0.0251,0.0136,0.0132,0.0106,0.0124,0.0151,0.0086,0.0126,0.0126,0.0126,0,0.0432,0.0475,0.0546,0.0605,0.0618,0.0641,0.0682,0.07,0.0693,0.0685,0.0657,0.0605,0.0558,0.0483,0.0358,0.0377,0.028,0.0211,0.0205,0.0151,0.0095,0.0064,0.0079,0.0121,0.0122,0.0122,0.0122,0,0.0483,0.0548,0.0616,0.0634,0.0684,0.0708,0.0735,0.0746,0.0794,0.079,0.0816,0.0732,0.0709,0.0574,0.0405,0.0387,0.0266,0.0223,0.0098,0.0093,0.0083,0.0078,0.0138,0.0139,0.0139,0.0139,0.0139,0,0.0542,0.0595,0.0648,0.0685,0.0778,0.0781,0.0876,0.0882,0.0926,0.1005,0.0904,0.0931,0.0732,0.0628,0.0455,0.0271,0.0296,0.0115,0.0078,0.0107,0.0105,0.0111,0.0109,0.0136,0.0137,0.0137,0.0138,0,0.0589,0.0617,0.0707,0.0776,0.0805,0.0874,0.0983,0.1059,0.1072,0.1168,0.1176,0.1094,0.0955,0.0737,0.0529,0.0354,0.0173,0.0099,0.0141,0.011,0.0002,0.0004,-0.0043,-0.0045,-0.0046,-0.0047,-0.0048,0,0.0623,0.0673,0.078,0.0846,0.0881,0.0988,0.1072,0.1131,0.1225,0.1273,0.1331,0.1221,0.1164,0.0826,0.0511,0.0208,0.0167,0.0028,-0.0005,0.0018,-0.0014,-0.0009,-0.0005,0.0003,0.0003,0.0002,0.0002,0,0.0695,0.0726,0.0803,0.0937,0.1037,0.117,0.129,0.1383,0.1463,0.1527,0.1576,0.1528,0.121,0.0899,0.0476,0.0275,0.0074,0.0009,0.0036,0.0046,0.0056,0.0026,0.003,-0.0002,-0.0001,-0.0001,-0.0001,-0.0001,0.0749,0.0815,0.0911,0.1043,0.1168,0.1322,0.1432,0.1562,0.1704,0.18,0.1754,0.1685,0.1329,0.0788,0.0419,0.0038,0.0059,-0.008,-0.0076,-0.0072,-0.0052,-0.0045,-0.0119,-0.0119,-0.0119,-0.0119,-0.012,0,0.0822,0.0893,0.1013,0.1169,0.1314,0.1367,0.1563,0.1666,0.1823,0.191,0.1939,0.1599,0.1246,0.0838,0.0265,-0.0076,-0.0088,-0.0177,-0.0126,-0.0119,-0.0114,-0.0095,-0.0174,-0.0175,-0.0176,-0.0177,0,0,0.086,0.0976,0.1033,0.1261,0.1374,0.1559,0.1667,0.1806,0.1901,0.1971,0.1944,0.1873,0.1367,0.0941,0.0475,0.0143,0.0097,0.0089,0.0171,0.0295,0.0304,-0.0019,0.0023,0,0,0,0,0]}],[{"header":{"parameterUnit":"m.s-1","parameterCategory":2,"la1":30.2991,"la2":30.254,"lo1":-89.0895,"lo2":-89.0444,"dy":0.0017,"dx":0.0017,"nx":28,"ny":28,"refTime":"2025-11-08T09:00:00:Z","depth":"4","parameterNumber":2,"parameterNumberName":"U-component_of_CURRENTS"},"data":[0,0,0,0,0,0,0,0,0,0,0,0,0,0,0,0,0,0,0,0,0,0,0,0,0,0,0,0,0,0,0,0,0,0,0,0,0,0,0,0,0,0,0,0,0,0,0,0,0,0,0,0,0,0,0,0,0,0,0.2009,0.201,0,0.2096,0.2097,0.2097,0.2164,0.2165,0.2166,0.2167,0.2236,0.2237,0.2238,0,0,0,0,0,0,0,0,0,0,0,0,0,0.1898,0.19,0.2009,0.201,0.2011,0.2096,0.2097,0.2098,0.2164,0.2165,0.2166,0.2167,0.2236,0.2237,0.2238,0,0,0,0,0,0,0,0,0,0,0,0,0,0.1959,0.19,0.2008,0.2057,0.2062,0.2096,0.2097,0.2098,0.2164,0.2165,0.2166,0.2168,0.2236,0.2237,0.2239,0.222,0,0,0.2243,0.2244,0,0,0,0,0,0,0,0,0.1955,0.1962,0.2048,0.2054,0.206,0.2123,0.2084,0.2139,0.2163,0.2122,0.2167,0.2168,0.2198,0.2203,0.2212,0.2223,0.2226,0.2243,0.2244,0.2245,0.2245,0,0,0,0,0,0,0,0.1951,0.1959,0.204,0.205,0.2057,0.2074,0.2084,0.2094,0.2148,0.2125,0.2131,0.2146,0.2201,0.221,0.2214,0.2228,0.2243,0.2245,0.2245,0.2246,0.2357,0.2358,0,0,0,0,0,0,0.1946,0.1955,0.2037,0.2043,0.2014,0.2076,0.2086,0.2099,0.2149,0.2159,0.2145,0.2149,0.2207,0.2212,0.2216,0.231,0.2245,0.2246,0.2247,0.2355,0.2357,0.2359,0,0,0,0,0,0,0.1943,0.1952,0.2034,0.2004,0.2016,0.2076,0.209,0.21,0.2157,0.2164,0.2173,0.2196,0.2208,0.2214,0.227,0.2309,0.2247,0.2248,0.2352,0.2355,0.2358,0.2425,0,0,0,0,0,0,0.1939,0.195,0.1978,0.2003,0.2017,0.2082,0.2089,0.2101,0.2162,0.2169,0.221,0.2216,0.221,0.2268,0.2271,0.231,0.2249,0.235,0.2354,0.2357,0.242,0.243,0.2439,0,0,0,0,0,0.1935,0.1957,0.1978,0.199,0.2046,0.2083,0.2093,0.2137,0.2164,0.2193,0.2228,0.2217,0.2295,0.2271,0.2274,0.2314,0.2348,0.2352,0.2357,0.2416,0.2428,0.2438,0,0,0,0,0,0,0.1924,0.1967,0.199,0.2027,0.2068,0.2097,0.2135,0.2163,0.2213,0.2235,0.224,0.2248,0.2312,0.2305,0.2279,0.2359,0.232,0.2326,0.2364,0.2376,0.2384,0.239,0.2251,0,0,0,0,0,0.1933,0.1967,0.2006,0.2041,0.2066,0.211,0.214,0.2172,0.221,0.2237,0.2266,0.2297,0.2324,0.2347,0.2367,0.2407,0.2416,0.2437,0.2446,0.2454,0.2463,0.2511,0.2525,0.2374,0.2374,0.2374,0,0,0.194,0.197,0.1991,0.2043,0.2081,0.2117,0.2132,0.2192,0.2231,0.2233,0.2308,0.2334,0.2344,0.2394,0.2422,0.24,0.2505,0.246,0.2466,0.2471,0.2517,0.2531,0.2544,0.2377,0.2377,0.2376,0,0,0.1953,0.2,0.2028,0.2065,0.2131,0.2155,0.2183,0.224,0.2282,0.2345,0.2361,0.2416,0.2457,0.2474,0.2484,0.2555,0.2553,0.2569,0.2617,0.2664,0.2676,0.2687,0.2728,0.2742,0.257,0.2571,0.2571,0,0.1966,0.1999,0.2044,0.2079,0.2115,0.2176,0.2212,0.2258,0.2329,0.237,0.2383,0.2479,0.2491,0.2548,0.2577,0.2576,0.2603,0.2572,0.2675,0.2686,0.2697,0.2735,0.2749,0.2574,0.2574,0.2574,0.2573,0,0.1984,0.2029,0.2053,0.2114,0.2158,0.2205,0.2266,0.233,0.2391,0.2436,0.2532,0.2561,0.262,0.2632,0.2627,0.2709,0.2706,0.2682,0.2644,0.2716,0.2752,0.2766,0.258,0.2578,0.2577,0.2576,0,0,0.1964,0.2048,0.2063,0.2096,0.2184,0.2217,0.2297,0.2376,0.2444,0.2526,0.2609,0.2668,0.2714,0.2729,0.2742,0.2779,0.2875,0.2771,0.2772,0.2806,0.299,0.2801,0.2798,0.2877,0.2879,0.2882,0.2989,0,0.197,0.2027,0.2073,0.2141,0.2174,0.2256,0.2321,0.2409,0.2494,0.2593,0.2659,0.2744,0.2741,0.2791,0.2833,0.2867,0.2915,0.2849,0.292,0.2922,0.2741,0.2808,0.289,0.2999,0.3003,0.3005,0.3007,0,0.1966,0.2006,0.2067,0.2153,0.218,0.2238,0.2363,0.2429,0.2572,0.2648,0.2756,0.2819,0.2917,0.2895,0.3004,0.2969,0.2997,0.3009,0.3013,0.282,0.2758,0.2912,0.3032,0.303,0.3028,0.3026,0.3025,0,0.1911,0.2,0.2048,0.208,0.2189,0.225,0.2321,0.2457,0.2537,0.2702,0.2789,0.2905,0.2991,0.3043,0.3097,0.3069,0.3198,0.3153,0.3011,0.2999,0.3107,0.3094,0.3232,0.3232,0.3232,0.3232,0.3232,0,0.1873,0.1916,0.2037,0.2062,0.2141,0.223,0.234,0.2434,0.2589,0.2682,0.2825,0.2912,0.3038,0.3125,0.3143,0.3122,0.3245,0.3032,0.3014,0.3134,0.3123,0.3118,0.3103,0.3236,0.3235,0.3234,0.3233,0,0.1793,0.1872,0.1937,0.2067,0.2116,0.2177,0.2345,0.2415,0.258,0.271,0.2774,0.2963,0.3064,0.316,0.3253,0.3166,0.3168,0.3134,0.3282,0.3269,0.2928,0.2916,0.2969,0.2964,0.2959,0.2955,0.2951,0,0.1746,0.1775,0.1929,0.1977,0.2043,0.2155,0.2226,0.2398,0.247,0.2707,0.2746,0.2932,0.3031,0.3022,0.3125,0.315,0.3113,0.3092,0.2978,0.2924,0.2903,0.2898,0.2893,0.2943,0.2942,0.2941,0.2939,0,0.1659,0.1742,0.1801,0.1899,0.1987,0.2062,0.2175,0.222,0.2406,0.2585,0.2663,0.2728,0.2843,0.2905,0.2959,0.2964,0.3081,0.3039,0.3048,0.2941,0.2893,0.2876,0.2876,0.2922,0.2925,0.2927,0.2928,0,0.1609,0.1633,0.1731,0.1799,0.1896,0.1926,0.2008,0.2085,0.2182,0.2429,0.2452,0.2642,0.2814,0.2812,0.2855,0.2852,0.2795,0.268,0.2706,0.2726,0.2593,0.2494,0.2394,0,0,0,0,0,0.155,0.1559,0.1614,0.1676,0.1761,0.1815,0.1947,0.2031,0.2218,0.221,0.2323,0.2414,0.2488,0.2591,0.2538,0.2744,0.2804,0.2667,0.2684,0.2828,0.2848,0.2711,0,0,0,0,0,0,0.1506,0.156,0.1571,0.1553,0.1569,0.164,0.1717,0.1843,0.1846,0.205,0.211,0.226,0.2377,0.2498,0.2492,0.252,0.2477,0.2788,0.2781,0.2817,0.2835,0.2851,0.2717,0,0,0,0,0]},{"header":{"parameterUnit":"m.s-1","parameterCategory":2,"la1":30.2991,"la2":30.254,"lo1":-89.0895,"lo2":-89.0444,"dy":0.0017,"dx":0.0017,"nx":28,"ny":28,"refTime":"2025-11-08T09:00:00:Z","depth":"4","parameterNumber":3,"parameterNumberName":"V-component_of_CURRENTS"},"data":[0,0,0,0,0,0,0,0,0,0,0,0,0,0,0,0,0,0,0,0,0,0,0,0,0,0,0,0,0,0,0,0,0,0,0,0,0,0,0,0,0,0,0,0,0,0,0,0,0,0,0,0,0,0,0,0,0,0,0.0185,0.0184,0,0.0148,0.0148,0.0147,0.0127,0.0127,0.0127,0.0127,0.0084,0.0082,0.0081,0,0,0,0,0,0,0,0,0,0,0,0,0,0.019,0.0191,0.0185,0.0184,0.0184,0.0148,0.0148,0.0147,0.0127,0.0127,0.0127,0.0127,0.0084,0.0083,0.0081,0,0,0,0,0,0,0,0,0,0,0,0,0,0.0174,0.0191,0.0185,0.017,0.0168,0.0149,0.0148,0.0147,0.0127,0.0127,0.0127,0.0127,0.0084,0.0083,0.0081,0.0071,0,0,0.0076,0.0075,0,0,0,0,0,0,0,0,0.0175,0.0174,0.0172,0.0171,0.0169,0.0143,0.0134,0.0122,0.0127,0.0142,0.0127,0.0127,0.0103,0.01,0.0092,0.0069,0.0067,0.0076,0.0075,0.0074,0.0073,0,0,0,0,0,0,0,0.0176,0.0175,0.017,0.0172,0.017,0.0149,0.0147,0.0131,0.0122,0.0141,0.0139,0.0136,0.0102,0.0094,0.0091,0.0067,0.0076,0.0074,0.0073,0.0073,0.0046,0.0046,0,0,0,0,0,0,0.0184,0.0176,0.0171,0.0169,0.0173,0.0149,0.0147,0.0151,0.0123,0.0119,0.0136,0.0135,0.0097,0.0093,0.009,0.0097,0.0074,0.0072,0.0071,0.0045,0.0046,0.0046,0,0,0,0,0,0,0.0185,0.0184,0.0172,0.0172,0.0169,0.015,0.0154,0.015,0.0146,0.012,0.0115,0.0137,0.0097,0.0092,0.0084,0.0094,0.0072,0.007,0.0045,0.0046,0.0046,0.0098,0,0,0,0,0,0,0.0185,0.0185,0.019,0.0172,0.0169,0.0169,0.0153,0.0149,0.0144,0.0143,0.0119,0.0114,0.0096,0.0087,0.0082,0.0092,0.0069,0.0045,0.0045,0.0046,0.0096,0.0101,0.0104,0,0,0,0,0,0.0186,0.0195,0.0191,0.019,0.0177,0.017,0.0166,0.0151,0.0145,0.0147,0.0132,0.0115,0.0087,0.0086,0.0081,0.009,0.0044,0.0045,0.0046,0.0095,0.01,0.0104,0,0,0,0,0,0,0.0198,0.0193,0.0189,0.0196,0.0187,0.0167,0.0166,0.0156,0.0145,0.0144,0.012,0.0114,0.011,0.0092,0.0091,0.0083,0.0063,0.0062,0.0102,0.0106,0.011,0.0127,0.0067,0,0,0,0,0,0.0205,0.0213,0.0201,0.0207,0.0204,0.0186,0.0181,0.0172,0.0159,0.0154,0.0138,0.012,0.0107,0.0102,0.0085,0.0082,0.0052,0.0084,0.0088,0.0091,0.0101,0.006,0.0061,0.0048,0.0048,0.0048,0,0,0.021,0.0209,0.0213,0.021,0.0201,0.0209,0.0183,0.018,0.0188,0.0151,0.0156,0.0132,0.0108,0.0105,0.0102,0.0094,0.0078,0.0092,0.0096,0.0104,0.006,0.0062,0.0063,0.0049,0.0049,0.0049,0,0,0.0229,0.0226,0.024,0.0238,0.0232,0.0224,0.0227,0.0212,0.0207,0.0205,0.0181,0.0167,0.0146,0.0133,0.0124,0.0139,0.0098,0.0132,0.0169,0.0129,0.0129,0.013,0.0088,0.0085,0.0137,0.0137,0.0137,0,0.0236,0.0256,0.0241,0.0255,0.0262,0.0237,0.0257,0.0246,0.0231,0.0233,0.0214,0.0185,0.0161,0.0161,0.0166,0.0149,0.0117,0.0154,0.0134,0.0134,0.0133,0.0091,0.0086,0.0139,0.0139,0.0139,0.0138,0,0.0265,0.0283,0.0291,0.0306,0.0309,0.0321,0.0311,0.0309,0.0298,0.0289,0.028,0.0241,0.0228,0.0213,0.0196,0.0186,0.0161,0.0141,0.0124,0.0138,0.0092,0.0086,0.0143,0.0142,0.0141,0.0141,0,0,0.028,0.0309,0.0313,0.0339,0.0342,0.0353,0.0362,0.0371,0.0388,0.0354,0.0366,0.0332,0.0307,0.0294,0.0262,0.0227,0.019,0.0189,0.0186,0.0152,0.0097,0.0083,0.0075,0.0163,0.0163,0.0162,0.0065,0,0.0311,0.036,0.0362,0.0412,0.0439,0.0427,0.0445,0.0446,0.0437,0.0439,0.0389,0.0388,0.0339,0.0335,0.0291,0.0217,0.0177,0.0218,0.0085,0.0082,0.0071,0.0069,0.016,0.006,0.0059,0.0058,0.0057,0,0.0342,0.0376,0.0433,0.0484,0.0494,0.0517,0.055,0.0564,0.0552,0.0544,0.052,0.0478,0.043,0.0383,0.0259,0.0286,0.0202,0.0135,0.0129,0.0097,0.0058,0.0043,0.0045,0.0046,0.0047,0.0048,0.0049,0,0.0372,0.0428,0.0483,0.0499,0.0544,0.0567,0.0591,0.0598,0.0631,0.0615,0.0625,0.055,0.0521,0.0402,0.0263,0.0259,0.0114,0.0089,-0.0004,-0.0007,0.0011,0.0012,0.0001,0.0001,0.0001,0.0001,0.0002,0,0.0409,0.0454,0.0507,0.0537,0.0611,0.062,0.0693,0.0697,0.072,0.0762,0.0689,0.0687,0.0524,0.0419,0.0282,0.0121,0.0124,0.0004,-0.0031,0.0034,0.0039,0.0006,0.0008,-0.0002,-0.0001,-0.0001,-0.0,0,0.0435,0.0466,0.0538,0.0601,0.0629,0.0684,0.0772,0.0823,0.0829,0.0875,0.0873,0.0789,0.0652,0.0477,0.028,0.0158,-0.0002,-0.0059,0.0026,-0.0003,-0.0102,-0.0096,-0.0174,-0.0175,-0.0176,-0.0177,-0.0177,0,0.0454,0.0494,0.059,0.0643,0.0678,0.0766,0.083,0.0875,0.0929,0.0936,0.0953,0.0843,0.0761,0.048,0.0284,0.0015,-0.0024,-0.0115,-0.0111,-0.0093,-0.0119,-0.0112,-0.0105,-0.0179,-0.0179,-0.018,-0.018,0,0.049,0.0525,0.0585,0.0695,0.0776,0.0879,0.0966,0.1014,0.1058,0.1064,0.1025,0.0876,0.0719,0.049,0.0281,0.0087,-0.0063,-0.0127,-0.0126,-0.0124,-0.0101,-0.0124,-0.0116,-0.0184,-0.0183,-0.0183,-0.0183,0,0.0518,0.0564,0.0642,0.0742,0.0849,0.095,0.1003,0.106,0.1111,0.1105,0.1087,0.0914,0.0814,0.0527,0.0333,0.014,0.0086,0.0013,0.0006,0.0007,0.0083,0.014,0.0105,0,0,0,0,0,0.0542,0.0592,0.0683,0.0791,0.0901,0.0967,0.1073,0.1116,0.1153,0.1137,0.1116,0.0969,0.0683,0.0563,0.037,0.0298,0.0042,0.0061,-0.0048,-0.0204,-0.02,-0.0143,0,0,0,0,0,0,0.0553,0.0635,0.0678,0.0815,0.0896,0.1023,0.1096,0.1127,0.112,0.112,0.098,0.0905,0.0637,0.0796,0.0361,0.0302,0.0202,-0.0069,-0.0074,-0.0206,-0.0203,-0.0199,-0.0139,0,0,0,0,0]}]]